AirNav   Everest Fuels
 
 1116 users online  

KSER Freeman Municipal Airport
Seymour, Indiana, USA

GOING TO SEYMOUR?


FAA INFORMATION EFFECTIVE 10 SEPTEMBER 2020

Location

FAA Identifier: SER
Lat/Long: 38-55-31.3582N 085-54-31.3165W
38-55.522637N 085-54.521942W
38.9253773,-85.9086990
(estimated)
Elevation: 582.7 ft. / 177.6 m (surveyed)
Variation: 02W (1985)
From city: 2 miles SW of SEYMOUR, IN
Time zone: UTC -4 (UTC -5 during Standard Time)
Zip code: 47274

Airport Operations

Airport use: Open to the public
Activation date: 05/1941
Control tower: no
ARTCC: INDIANAPOLIS CENTER
FSS: TERRE HAUTE FLIGHT SERVICE STATION
NOTAMs facility: HUF (NOTAM-D service available)
Attendance: 0800-1630
Wind indicator: lighted
Segmented circle: yes
Lights: MIRL RYS 05/23 & 14/32 PRESET ON OFF ; TO ACTVT & INCR INTST REIL RYS 05, 23, 14 & 32, & ODALS RYS 05 & 23 PAPI RYS 05 & 23 - CTAF.
Beacon: white-green (lighted land airport)
Operates sunset to sunrise.

Airport Communications

CTAF/UNICOM: 122.8
WX AWOS-3: 119.425 (812-522-4244)
WX AWOS-3 at OVO (16 nm NE): 120.625 (812-346-5041)
  • APCH/DEP SVC PRVDD BY INDIANAPOLIS ARTCC ON FREQS 124.775/269.45 (HENRYVILLE RCAG).

Nearby radio navigation aids

VOR radial/distance  VOR name  Freq  Var
OOMr114/35.3HOOSIER VORTAC110.2002W

 
NDB name  Hdg/Dist  Freq  Var  ID
BATESVILLE235/39.425405WHLB .... .-.. -...

Airport Services

Fuel available: 100LL JET-A
SELF SERVE AVBL 24 HRS.
Parking: hangars and tiedowns
Airframe service: MINOR
Powerplant service: MINOR
Bottled oxygen: LOW

Runway Information

Runway 14/32

Dimensions: 5502 x 100 ft. / 1677 x 30 m
Surface: asphalt/grooved, in good condition
Weight bearing capacity: 
Single wheel: 20.0
Double wheel: 35.0
Double tandem: 50.0
Runway edge lights: medium intensity
RUNWAY 14  RUNWAY 32
Latitude: 38-55.722890N38-55.092132N
Longitude: 085-55.257455W085-54.424203W
Elevation: 582.7 ft.570.3 ft.
Traffic pattern: leftleft
Runway heading: 136 magnetic, 134 true316 magnetic, 314 true
Markings: nonprecision, in good conditionnonprecision, in good condition
Visual slope indicator: 2-light PAPI on left (3.00 degrees glide path)2-light PAPI on left (3.00 degrees glide path)
Runway end identifier lights: yesyes
Touchdown point: yes, no lightsyes, no lights
Obstructions: 10 ft. crops, 440 ft. from runway, 24:1 slope to clearnone

Runway 5/23

Dimensions: 5501 x 100 ft. / 1677 x 30 m
Surface: asphalt/grooved, in good condition
Weight bearing capacity: 
Single wheel: 115.0
Double wheel: 180.0
Double tandem: 300.0
Runway edge lights: medium intensity
RUNWAY 5  RUNWAY 23
Latitude: 38-55.091807N38-55.742693N
Longitude: 085-54.446425W085-53.639340W
Elevation: 570.9 ft.579.9 ft.
Traffic pattern: leftleft
Runway heading: 046 magnetic, 044 true226 magnetic, 224 true
Markings: nonprecision, in good conditionnonprecision, in good condition
Visual slope indicator: 2-light PAPI on left (3.00 degrees glide path)2-light PAPI on left (3.00 degrees glide path)
Approach lights: ODALS: omnidirectional approach lighting systemODALS: omnidirectional approach lighting system
Runway end identifier lights: yesyes
Touchdown point: yes, no lightsyes, no lights
Instrument approach: LOCALIZER

Runway 18U/36U

Dimensions: 1216 x 100 ft. / 371 x 30 m
Surface: turf, in fair condition
RUNWAY 18U  RUNWAY 36U
Latitude: 38-56.089530N38-55.889350N
Longitude: 085-54.939063W085-54.934893W
Elevation: 573.1 ft.573.1 ft.
Traffic pattern: leftright
Runway heading: 182 magnetic, 180 true002 magnetic, 000 true

Runway 9U/27U

Dimensions: 1104 x 100 ft. / 336 x 30 m
Surface: turf, in good condition
RUNWAY 9U  RUNWAY 27U
Latitude: 38-56.106178N38-56.108513N
Longitude: 085-54.978998W085-54.746230W
Elevation: 569.9 ft.569.9 ft.
Traffic pattern: leftleft
Runway heading: 092 magnetic, 090 true272 magnetic, 270 true

Airport Ownership and Management from official FAA records

Ownership: Publicly-owned
Owner: SEYMOUR AIRPORT AUTHORITY
P.O. BOX 702
SEYMOUR, IN 47274
Phone 812-522-2031
Manager: DON FURLOW
P.O. BOX 702
SEYMOUR, IN 47274
Phone 812-522-2031

Airport Operational Statistics

Aircraft based on the field: 66
Single engine airplanes: 43
Multi engine airplanes: 6
Helicopters: 2
Gliders airplanes: 15
    
Aircraft operations: avg 57/day *
57% local general aviation
21% transient general aviation
21% air taxi
1% military
* for 12-month period ending 31 December 2017

Additional Remarks

A52-09U 30 FT PLINE WITH MARKER BALLS 700 FT FM RWY END.
A52-18U 20 FT BLDG 550 FT FM RWY END.
RDO CTLD AIRPLANE OPS ON & INVOF ARPT DLY FM APR - OCT.
TWY LGTS FM INT 14/32 & 05/23 TO APRON ONLY.
FOR CD CTC INDIANAPOLIS ARTCC AT 317-247-2411.

Instrument Procedures

NOTE: All procedures below are presented as PDF files. If you need a reader for these files, you should download the free Adobe Reader.

NOT FOR NAVIGATION. Please procure official charts for flight.
FAA instrument procedures published for use from 10 September 2020 at 0901Z to 08 October 2020 at 0900z.

 
IAPs - Instrument Approach Procedures
RNAV (GPS) RWY 05   download (302KB)
RNAV (GPS) RWY 14   download (269KB)
RNAV (GPS) RWY 23   download (293KB)
RNAV (GPS) RWY 32   download (241KB)
NOTE: Special Take-Off Minimums/Departure Procedures apply   download (164KB)

Other nearby airports with instrument procedures:

KOVO - North Vernon Airport (16 nm NE)
KBAK - Columbus Municipal Airport (20 nm N)
KIMS - Madison Municipal Airport (23 nm SE)
KBFR - Virgil I Grissom Municipal Airport (26 nm W)
I34 - Greensburg Municipal Airport (30 nm NE)
 
Loc | Ops | Rwys | IFR | FBO | Links
Com | Nav | Svcs | Stats | Notes
Area around KSER (Freeman Municipal Airport)
 
Road maps at: MapQuest Bing Google
 
Aerial photo
WARNING: Photo may not be current or correct
Aerial photo of KSER (Freeman Municipal Airport)
Do you have a better or more recent aerial photo of Freeman Municipal Airport that you would like to share? If so, please send us your photo.

 
Sectional chart

 
Airport distance calculator
Flying to Freeman Municipal Airport? Find the distance to fly.

From to KSER

Sunrise and sunset
Times for 19-Sep-2020
 Local
(UTC-4)
 Zulu
(UTC)
Morning civil twilight07:0411:04
Sunrise07:3011:30
Sunset19:4423:44
Evening civil twilight20:1000:10

Current date and time
Zulu (UTC)  19-Sep-2020 14:56:27
Local (UTC-4)  19-Sep-2020 10:56:27
 
METAR
KBAK 
20nm N 
191345Z 05008KT 10SM SKC 10/04 A3037
KIMS 
23nm SE 
191435Z AUTO 07007KT 10SM CLR 13/05 A3036 RMK AO1
KJVY 
35nm S 
191315Z AUTO 36005KT 10SM CLR 10/07 A3032 RMK AO2 T01000069
KBMG 
36nm W 
191353Z 07009KT 10SM CLR 13/04 A3035 RMK AO2 SLP279 T01330044
KHLB 
39nm NE 
191435Z AUTO 07008G13KT 10SM CLR 13/04 A3037 RMK A01
KGEZ 
40nm N 
191353Z AUTO 08009G14KT 10SM CLR 13/05 A3037 RMK AO2 SLP284 T01280050
TAF
KBMG 
36nm W 
191122Z 1912/2012 06006KT P6SM SKC AMD LTD TO CLD VIS AND WIND TIL 191300
NOTAMs
Click for the latest NOTAMs
NOTAMs are issued by the DoD/FAA and will open in a separate window not controlled by AirNav.

 

 
 

FBO, Fuel Providers, and Aircraft Ground Support

  
 Business Name 
 
 Contact 
 
 Services / Description 
 
Fuel Prices
 
Comments
  
Freeman Municipal Airport 812-522-2031
[email]
Airport management, Aviation fuel, Aircraft parking (ramp or tiedown), Hangar leasing / sales, Passenger terminal and lounge, Pilots lounge / snooze room, ...

More info about Freeman Municipal Airport
Phillips 66
100LL Jet A
SS $4.00 $2.80 
 Updated 16-Sep-2020
 
   2 read write
SS=Self service
Update Fuel Prices
 

Would you like to see your business listed on this page?

 If your business provides an interesting product or service to pilots, flight crews, aircraft, or users of the Freeman Municipal Airport, you should consider listing it here.  To start the listing process, click on the button below
 
Add a business
 

Other Pages about Freeman Municipal Airport

Update a link
 
Copyright © AirNav, LLC. All rights reserved. Privacy Policy  Contact